Location: Baia Mare
(47.6567°N, 23.5850°E)
Time: 20:44:39
(UTC+03:00)

ISS - Pass Details

Date: 18 May 2018
Orbit: 402 x 407 km, 51.6° (Epoch: 25 May)

Event Time Altitude Azimuth Distance (km) Brightness Sun altitude
Exits shadow 01:15:46 23° 62° (ENE) 924 -1.8 -22.8°
Drops below altitude 10° 01:17:07 10° 65° (ENE) 1,458 -0.7 -22.9°
Sets 01:19:12 0° 67° (ENE) 2,319 0.3 -22.9°
